Location: Tauranga
(37.6860°S, 176.1670°E)
Time: 10:12:36
(UTC+13:00)

ERS-1 Rocket - Pass Details

Date: 24 January 2019
Orbit: 754 x 757 km, 98.5° (Epoch: 14 February)

Event Time Altitude Azimuth Distance (km) Brightness Sun altitude
Rises 22:37:49 0° 155° (SSE) 3,244 6.5 -20.5°
Reaches altitude 10° 22:40:28 10° 143° (SE) 2,310 5.6 -20.9°
Enters shadow 22:44:02 27° 100° (E) 1,448 4.1 -21.3°
